This demonstration page uses our WeatherBlox Daily Observations layout. Learn more.

Left ArrowRight Arrow

Hourly Observations for February 5, 2022

Temp ( °F °C ) Dew Point ( °F °C ) Humidity (%) Winds ( mph kmh ) Pressure ( in mb ) Visibility ( mi km ) Precip ( " mm )
12:15 am 00:15 Clear 19 -7 9 -12.7 64 64 SSE 6 9 30.47 1032 10 16 0.00 0.00
12:35 am 00:35 Clear 19 -7.3 9 -12.7 66 66 SSE 8 13 30.46 1031 10 16 0.00 0.00
12:55 am 00:55 Clear 19 -7.5 9 -12.7 67 67 S 8 13 30.44 1031 10 16 0.00 0.00
1:15 am 01:15 Clear 20 -6.9 10 -12.1 67 67 S 9 15 30.42 1030 10 16 0.00 0.00
1:35 am 01:35 Clear 20 -6.5 10 -12 65 65 S 8 13 30.40 1029 10 16 0.00 0.00
1:55 am 01:55 Clear 21 -6 11 -11.6 65 65 S 9 15 30.38 1029 10 16 0.00 0.00
2:15 am 02:15 Clear 20 -6.5 11 -11.7 67 67 S 12 19 30.38 1029 10 16 0.00 0.00
2:35 am 02:35 Clear 20 -6.5 11 -11.6 67 67 S 10 17 30.37 1028 10 16 0.00 0.00
2:55 am 02:55 Clear 20 -6.7 11 -11.5 69 69 SSW 7 11 30.36 1028 10 16 0.00 0.00
3:15 am 03:15 Clear 20 -6.9 11 -11.4 71 71 SW 6 9 30.35 1028 10 16 0.00 0.00
3:35 am 03:35 Clear 22 -5.7 13 -10.5 69 69 SSW 12 19 30.33 1027 10 16 0.00 0.00
3:55 am 03:55 Clear 22 -5.8 13 -10.8 68 68 SSW 10 17 30.32 1027 10 16 0.00 0.00
4:15 am 04:15 Clear 22 -5.6 13 -10.6 68 68 SSW 7 11 30.31 1026 10 16 0.00 0.00
4:35 am 04:35 Clear 22 -5.4 13 -10.5 68 68 SW 9 15 30.30 1026 10 16 0.00 0.00
4:55 am 04:55 Clear 24 -4.4 13 -10.3 64 64 SW 9 15 30.28 1025 10 16 0.00 0.00
5:15 am 05:15 Clear 25 -4.1 13 -10.5 61 61 SW 8 13 30.27 1025 10 16 0.00 0.00
5:35 am 05:35 Clear 24 -4.4 13 -10.4 63 63 SSW 9 15 30.25 1024 10 16 0.00 0.00
5:55 am 05:55 Clear 24 -4.3 13 -10.5 62 62 SSW 13 20 30.24 1024 10 16 0.00 0.00
6:15 am 06:15 Clear 24 -4.5 13 -10.5 63 63 SW 10 17 30.24 1024 10 16 0.00 0.00
6:35 am 06:35 Clear 24 -4.5 13 -10.5 63 63 SW 10 17 30.23 1024 10 16 0.00 0.00
6:55 am 06:55 Clear 24 -4.6 13 -10.3 65 65 SSW 14 22 30.22 1023 10 16 0.00 0.00
7:15 am 07:15 Clear 24 -4.5 13 -10.5 63 63 SSW 13 20 30.22 1023 10 16 0.00 0.00
7:35 am 07:35 Clear 24 -4.7 13 -10.5 64 64 SSW 13 20 30.21 1023 10 16 0.00 0.00
7:55 am 07:55 Sunny 23 -4.9 13 -10.4 66 66 SW 7 11 30.21 1023 10 16 0.00 0.00
8:15 am 08:15 Sunny 25 -4.1 14 -10 64 64 SW 6 9 30.20 1023 10 16 0.00 0.00
8:35 am 08:35 Sunny 26 -3.6 14 -10 62 62 SW 13 20 30.20 1023 10 16 0.00 0.00
8:55 am 08:55 Sunny 27 -2.8 15 -9.5 60 60 SW 9 15 30.19 1022 10 16 0.00 0.00
9:15 am 09:15 Sunny 28 -2.3 15 -9.5 58 58 SW 7 11 30.18 1022 10 16 0.00 0.00
9:35 am 09:35 Sunny 31 -0.7 16 -8.9 54 54 SW 9 15 30.16 1021 10 16 0.00 0.00
9:55 am 09:55 Sunny 32 0 16 -9 51 51 W 9 15 30.16 1021 10 16 0.00 0.00
10:15 am 10:15 Sunny 34 1 16 -8.9 48 48 WSW 6 9 30.15 1021 10 16 0.00 0.00
10:35 am 10:35 Sunny 37 2.6 16 -8.9 43 43 W 8 13 30.12 1020 10 16 0.00 0.00
10:55 am 10:55 Sunny 40 4.3 16 -8.7 39 39 WSW 6 9 30.10 1019 10 16 0.00 0.00
11:15 am 11:15 Sunny 43 6.1 17 -8.3 35 35 SW 7 11 30.08 1019 10 16 0.00 0.00
11:35 am 11:35 Sunny 44 6.8 17 -8.1 34 34 SW 7 11 30.05 1018 10 16 0.00 0.00
11:55 am 11:55 Sunny 46 7.9 18 -8 32 32 SSW 7 11 30.03 1017 10 16 0.00 0.00
12:15 pm 12:15 Sunny 50 9.8 18 -7.6 29 29 W 10 17 30.00 1016 10 16 0.00 0.00
12:35 pm 12:35 Sunny 52 11 18 -7.6 27 27 WSW 7 11 29.98 1015 10 16 0.00 0.00
12:55 pm 12:55 Sunny 53 11.5 19 -7.5 26 26 WSW 10 17 29.97 1015 10 16 0.00 0.00
1:15 pm 13:15 Sunny 54 12.2 18 -7.6 25 25 W 7 11 29.95 1014 10 16 0.00 0.00
1:35 pm 13:35 Sunny 55 12.9 18 -7.6 23 23 WNW 10 17 29.93 1013 10 16 0.00 0.00
1:55 pm 13:55 Sunny 56 13.1 18 -7.9 23 23 NNW 3 6 29.92 1013 10 16 0.00 0.00
2:15 pm 14:15 Sunny 57 13.7 18 -8 22 22 WNW 7 11 29.91 1013 10 16 0.00 0.00
2:35 pm 14:35 Sunny 56 13.6 17 -8.1 22 22 WNW 8 13 29.90 1013 10 16 0.00 0.00
2:55 pm 14:55 Sunny 57 14.1 18 -7.7 21 21 W 9 15 29.89 1012 10 16 0.00 0.00
3:15 pm 15:15 Sunny 57 14.1 19 -7.5 22 22 NNW 3 6 29.89 1012 10 16 0.00 0.00
3:35 pm 15:35 Sunny 57 14.1 18 -7.6 22 22 NW 5 7 29.88 1012 10 16 0.00 0.00
3:55 pm 15:55 Sunny 57 14.1 18 -7.7 21 21 WNW 6 9 29.88 1012 10 16 0.00 0.00
4:15 pm 16:15 Sunny 58 14.4 18 -7.7 21 21 WNW 3 6 29.87 1012 10 16 0.00 0.00
4:35 pm 16:35 Sunny 57 14 18 -7.6 22 22 NW 6 9 29.88 1012 10 16 0.00 0.00
4:55 pm 16:55 Sunny 57 14 19 -7.5 22 22 NW 6 9 29.88 1012 10 16 0.00 0.00
5:15 pm 17:15 Sunny 56 13.4 19 -7.5 23 23 Calm 29.89 1012 10 16 0.00 0.00
5:35 pm 17:35 Sunny 54 12 18 -7.9 24 24 Calm 29.91 1013 10 16 0.00 0.00
5:55 pm 17:55 Sunny 49 9.6 19 -7.5 29 29 N 8 13 29.94 1014 10 16 0.00 0.00
6:15 pm 18:15 Clear 45 7.1 18 -7.8 34 34 N 5 7 29.96 1015 10 16 0.00 0.00
6:35 pm 18:35 Clear 42 5.5 17 -8.5 36 36 N 3 6 29.97 1015 10 16 0.00 0.00
6:55 pm 18:55 Clear 42 5.4 17 -8.3 37 37 Calm 29.97 1015 10 16 0.00 0.00
7:15 pm 19:15 Clear 39 3.9 16 -9.1 38 38 Calm 30.00 1016 10 16 0.00 0.00
7:35 pm 19:35 Clear 37 2.7 15 -9.3 41 41 Calm 30.02 1017 10 16 0.00 0.00
7:55 pm 19:55 Clear 34 1 15 -9.6 45 45 Calm 30.04 1017 10 16 0.00 0.00
8:15 pm 20:15 Partly Cloudy 33 0.3 13 -10.4 45 45 Calm 30.05 1018 10 16 0.00 0.00
8:35 pm 20:35 Partly Cloudy 31 -0.6 13 -10.7 47 47 NW 3 6 30.06 1018 10 16 0.00 0.00
8:55 pm 20:55 Mostly Cloudy 31 -0.5 14 -9.9 49 49 NW 5 7 30.07 1018 10 16 0.00 0.00
9:15 pm 21:15 Cloudy 33 0.7 16 -9.1 48 48 NW 5 7 30.06 1018 10 16 0.00 0.00
9:35 pm 21:35 Partly Cloudy 35 1.4 16 -9 46 46 WNW 3 6 30.05 1018 10 16 0.00 0.00
9:55 pm 21:55 Clear 33 0.7 16 -9.1 48 48 NW 3 6 30.06 1018 10 16 0.00 0.00
10:15 pm 22:15 Mostly Cloudy 32 -0.1 14 -9.9 48 48 NW 3 6 30.08 1018 10 16 0.00 0.00
10:35 pm 22:35 Partly Cloudy 33 0.4 16 -9 50 50 WNW 3 6 30.07 1018 10 16 0.00 0.00
10:55 pm 22:55 Clear 31 -0.6 14 -10 49 49 NW 9 15 30.09 1019 10 16 0.00 0.00
11:15 pm 23:15 Clear 33 0.5 17 -8.6 51 51 WNW 7 11 30.09 1019 10 16 0.00 0.00
11:35 pm 23:35 Partly Cloudy 33 0.4 15 -9.2 49 49 WNW 7 11 30.09 1019 10 16 0.00 0.00
11:55 pm 23:55 Clear 32 0.1 16 -9.1 50 50 WNW 6 9 30.09 1019 10 16 0.00 0.00

Powered by AerisWeather